Location: Kam�li
(14.6864°N, 3.1482°W)
Time: 22:37:02
(UTC+00:00)

Geosat - Pass Details

Date: 29 October 2020
Orbit: 763 x 766 km, 108.0° (Epoch: 03 December)

Event Time Altitude Azimuth Distance (km) Brightness Sun altitude
Rises 17:56:27 0° 32° (NNE) 3,223 6.8 -3.5°
Reaches altitude 10° 17:58:50 10° 39° (NE) 2,297 6.0 -4.1°
Maximum altitude 18:03:35 44° 111° (ESE) 1,048 4.4 -5.2°
Drops below altitude 10° 18:08:20 10° 182° (S) 2,295 6.7 -6.3°
Sets 18:10:42 0° 189° (S) 3,220 7.5 -6.9°
